Find ASCENT

NORAD ID: 51287 Int'l Des: 2021-118 Owner: AFRL Country: US operational
MEOCIRCULAR

リアルタイム位置

3D地球を読み込み中...

ASCENTについて

説明を読み込み中...

次回通過

Passes for default location (London). Set your location on the main map for personalized predictions.

高度履歴

Loading altitude history...

軌道要素

1 51287U 21118E 26119.91822706 -.00000174 00000-0 00000+0 0 9992
2 51287 4.0518 77.8516 0002984 128.3673 231.6402 1.01229912 15832
Epoch: Apr 29, 2026 • Age: 22 hours

現在のステータス

高度 35530.9 km
速度 3.08 km/s
衛星直下点 -1.60°S, 107.36°W
打ち上げ日 Dec 7, 2021
運用期間 4.3 years
タイプ other

技術仕様

分類 Payload
質量 25.00 kg
乾燥質量 25.00 kg
総質量 25.00 kg
長さ 0.30 m
直径 0.20 m
スパン 0.30 m
形状 Box
製造者 RAYBL
バスタイプ Cubesat 12U
フェーズステータス In Orbit
所有者/国 AFRL/US

Most Searched